Location: Lafig�re
(44.4503°N, 4.0357°E)
Time: 00:37:13
(UTC+00:00)

Cosmos 2150 Rocket - Pass Details

Date: 18 January 2021
Orbit: 748 x 808 km, 74.0° (Epoch: 06 March)

Event Time Altitude Azimuth Distance (km) Brightness Sun altitude
Rises 06:10:46 0° 343° (NNW) 3,255 6.9 -11.4°
Reaches altitude 10° 06:13:14 10° 349° (N) 2,334 6.2 -10.9°
Maximum altitude 06:18:22 48° 64° (ENE) 1,026 5.0 -10.1°
Drops below altitude 10° 06:23:32 10° 138° (SE) 2,357 7.6 -9.2°
Sets 06:26:02 0° 144° (SE) 3,291 8.3 -8.8°
